JR4VEV-13 Weather Reports


time (UTC)temp
C
wind
direction
speed
KPH
gust
KPH
rain 1hr
cm
rain 24hr
cm
rain mn
cm
humidity
%
barometer
mb
20260508095125 18 255 4.8 11.3 0.00 0.00 0.00 46 1011.5
20260508094125 18 290 6.4 9.7 0.00 0.00 0.00 46 1011.3
20260508093125 18 297 6.4 14.5 0.00 0.00 0.00 44 1011.2
20260508092126 18 301 6.4 19.3 0.00 0.00 0.00 44 1010.9
20260508091126 18 267 8.0 16.1 0.00 0.00 0.00 43 1010.7
20260508090125 18 296 6.4 17.7 0.00 0.00 0.00 43 1010.6
20260508085126 19 274 8.0 22.5 0.00 0.00 0.00 42 1010.3
20260508084125 20 248 14.5 22.5 0.00 0.00 0.00 42 1010.1
20260508083126 20 255 16.1 20.9 0.00 0.00 0.00 40 1009.9
20260508082125 20 269 6.4 20.9 0.00 0.00 0.00 38 1009.6
20260508081126 21 246 11.3 19.3 0.00 0.00 0.00 39 1009.4
20260508080126 21 262 6.4 16.1 0.00 0.00 0.00 40 1009.3
20260508075125 21 285 11.3 24.1 0.00 0.00 0.00 40 1009.1
20260508074126 21 243 4.8 25.7 0.00 0.00 0.00 37 1009.1
20260508073125 22 278 14.5 25.7 0.00 0.00 0.00 36 1008.9
20260508072126 22 283 11.3 24.1 0.00 0.00 0.00 34 1008.6
20260508071126 22 293 11.3 16.1 0.00 0.00 0.00 32 1008.4
20260508070126 23 354 8.0 25.7 0.00 0.00 0.00 33 1008.0
20260508065125 22 325 11.3 33.8 0.00 0.00 0.00 35 1007.9
20260508064125 23 269 6.4 24.1 0.00 0.00 0.00 36 1007.7
20260508063124 23 298 12.9 24.1 0.00 0.00 0.00 35 1007.7
20260508062125 23 283 9.7 22.5 0.00 0.00 0.00 41 1007.3
20260508061126 23 311 12.9 24.1 0.00 0.00 0.00 42 1007.3
20260508060125 23 245 12.9 24.1 0.00 0.00 0.00 44 1007.2
20260508055125 23 312 20.9 37.0 0.00 0.00 0.00 45 1007.2
20260508054126 23 305 12.9 20.9 0.00 0.00 0.00 47 1007.3
20260508053125 23 322 3.2 22.5 0.00 0.00 0.00 50 1007.6
20260508052126 23 302 16.1 27.4 0.00 0.00 0.00 48 1007.4
20260508051125 24 211 9.7 25.7 0.00 0.00 0.00 49 1007.4
20260508050124 24 283 12.9 22.5 0.00 0.00 0.00 47 1007.3
20260508045124 25 321 12.9 30.6 0.00 0.00 0.00 46 1007.2
20260508044126 24 310 17.7 20.9 0.00 0.00 0.00 46 1007.1
20260508043125 23 179 4.8 0.0 0.00 0.00 0.00 53 1007.3
20260508042124 23 228 1.6 8.0 0.00 0.00 0.00 52 1007.4
20260508041125 23 311 6.4 12.9 0.00 0.00 0.00 50 1007.3
20260508040126 23 255 3.2 16.1 0.00 0.00 0.00 51 1007.2
20260508035125 23 304 9.7 20.9 0.00 0.00 0.00 50 1007.2
20260508034124 22 288 9.7 19.3 0.00 0.00 0.00 51 1007.3
20260508033126 22 287 4.8 8.0 0.00 0.00 0.00 54 1007.2
20260508032125 22 295 1.6 6.4 0.00 0.00 0.00 55 1007.4
20260508031125 22 240 6.4 11.3 0.00 0.00 0.00 53 1007.5
20260508030125 22 276 6.4 12.9 0.00 0.00 0.00 53 1007.6
20260508025125 23 270 4.8 12.9 0.00 0.00 0.00 53 1007.5
20260508024125 23 245 6.4 8.0 0.00 0.00 0.00 55 1007.6
20260508023126 23 272 0.0 4.8 0.00 0.00 0.00 63 1007.4
20260508022125 23 284 0.0 4.8 0.00 0.00 0.00 66 1007.6
20260508021126 22 292 1.6 6.4 0.00 0.00 0.00 67 1007.8
20260508020125 22 240 0.0 9.7 0.00 0.00 0.00 67 1007.9
20260508015126 23 272 1.6 8.0 0.00 0.00 0.00 65 1007.8
20260508014125 23 177 3.2 4.8 0.00 0.00 0.00 66 1008.1
20260508013124 23 138 1.6 12.9 0.00 0.00 0.00 65 1008.0
20260508012124 23 104 6.4 6.4 0.00 0.00 0.00 65 1008.1
20260508011125 23 275 0.0 9.7 0.00 0.00 0.00 67 1008.0
20260508010124 22 198 3.2 8.0 0.00 0.00 0.00 68 1008.1
20260508005124 22 16 0.0 3.2 0.00 0.00 0.00 71 1008.0
20260508004125 21 102 0.0 3.2 0.00 0.00 0.00 74 1008.3
20260508003124 21 207 0.0 1.6 0.00 0.00 0.00 75 1008.4
20260508002125 20 81 1.6 1.6 0.00 0.00 0.00 78 1008.4
20260508001125 20 214 1.6 3.2 0.00 0.00 0.00 84 1008.4
20260508000124 19 256 0.0 1.6 0.00 0.00 0.00 84 1008.7
20260507235124 18 277 0.0 1.6 0.00 0.00 0.00 85 1008.6
20260507234125 18 241 0.0 1.6 0.00 0.00 0.00 85 1008.7
20260507233124 18 274 0.0 1.6 0.00 0.00 0.00 87 1008.7
20260507232125 17 274 0.0 4.8 0.00 0.00 0.00 87 1008.8
20260507231125 17 263 1.6 1.6 0.00 0.00 0.00 89 1008.9
20260507230124 17 251 0.0 1.6 0.00 0.00 0.00 90 1009.3
20260507225125 16 253 0.0 0.0 0.00 0.00 0.00 90 1009.3
20260507224125 16 115 0.0 0.0 0.00 0.00 0.00 91 1009.3
20260507223125 16 115 0.0 1.6 0.00 0.00 0.00 92 1009.4
20260507222124 16 115 0.0 0.0 0.00 0.00 0.00 92 1009.4
20260507221124 16 208 0.0 1.6 0.00 0.00 0.00 93 1009.4
20260507220659 16 255 0.0 1.6 0.00 0.00 0.00 93 1009.5
20260507220124 16 259 0.0 1.6 0.00 0.00 0.00 93 1009.4
20260507215124 15 259 0.0 1.6 0.00 0.00 0.00 94 1009.4
20260507214124 15 262 0.0 1.6 0.00 0.00 0.00 94 1009.2
20260507213125 15 263 0.0 1.6 0.00 0.00 0.00 94 1009.2
20260507212125 15 262 0.0 0.0 0.00 0.00 0.00 94 1009.1
20260507211124 15 262 0.0 0.0 0.00 0.00 0.00 94 1009.0
20260507210124 15 262 0.0 1.6 0.00 0.00 0.00 94 1009.2
20260507205125 15 263 0.0 0.0 0.00 0.00 0.00 94 1009.0
20260507204124 15 263 0.0 0.0 0.00 0.00 0.00 94 1009.1
20260507203124 15 263 0.0 0.0 0.00 0.00 0.00 94 1009.2
20260507202125 15 263 0.0 0.0 0.00 0.00 0.00 94 1009.3
20260507201123 15 263 0.0 1.6 0.00 0.00 0.00 94 1009.3
20260507200125 15 263 0.0 1.6 0.00 0.00 0.00 94 1009.2
20260507195124 15 259 0.0 0.0 0.00 0.00 0.00 93 1009.1
20260507194125 15 252 0.0 0.0 0.00 0.00 0.00 93 1009.0
20260507193124 15 252 0.0 1.6 0.00 0.00 0.00 93 1009.4
20260507192124 15 253 0.0 1.6 0.00 0.00 0.00 93 1009.4
20260507191124 15 260 0.0 0.0 0.00 0.00 0.00 93 1009.3
20260507190123 15 260 0.0 1.6 0.00 0.00 0.00 93 1009.3
20260507185125 15 260 0.0 0.0 0.00 0.00 0.00 93 1009.2
20260507184123 15 260 0.0 1.6 0.00 0.00 0.00 93 1009.2
20260507183658 15 260 0.0 1.6 0.00 0.00 0.00 93 1009.3
20260507183125 15 260 0.0 0.0 0.00 0.00 0.00 93 1009.4
20260507182124 15 260 0.0 1.6 0.00 0.00 0.00 93 1009.3
20260507181125 15 260 0.0 1.6 0.00 0.00 0.00 92 1009.6
20260507180124 15 264 0.0 1.6 0.00 0.00 0.00 92 1009.6
20260507175123 15 264 0.0 0.0 0.00 0.00 0.00 92 1009.7
20260507174124 15 264 0.0 1.6 0.00 0.00 0.00 92 1009.4
20260507173125 15 266 0.0 1.6 0.00 0.00 0.00 92 1009.6
20260507172125 16 266 0.0 0.0 0.00 0.00 0.00 91 1009.5
20260507171124 16 266 0.0 1.6 0.00 0.00 0.00 91 1009.7
20260507170124 16 266 0.0 3.2 0.00 0.00 0.00 91 1009.9
20260507165124 16 268 0.0 1.6 0.00 0.00 0.00 91 1010.0
20260507164125 16 272 0.0 3.2 0.00 0.00 0.00 91 1010.0
20260507163124 16 243 0.0 0.0 0.00 0.00 0.00 91 1010.3
20260507162125 16 243 0.0 1.6 0.00 0.00 0.00 91 1010.2
20260507161125 16 231 0.0 0.0 0.00 0.00 0.00 91 1010.3
20260507160123 16 231 0.0 0.0 0.00 0.00 0.00 91 1010.5
20260507155124 16 259 0.0 1.6 0.00 0.00 0.00 91 1010.6
20260507154125 16 259 0.0 1.6 0.00 0.00 0.00 91 1010.7
20260507153124 16 260 0.0 3.2 0.00 0.00 0.00 91 1010.8
20260507152124 16 271 0.0 0.0 0.00 0.00 0.00 91 1010.6
20260507151124 16 269 0.0 1.6 0.00 0.00 0.00 90 1010.7
20260507150125 16 269 0.0 1.6 0.00 0.00 0.00 90 1010.8
20260507145125 16 269 0.0 1.6 0.00 0.00 0.00 90 1010.9
20260507144124 16 269 0.0 1.6 0.00 0.00 0.00 90 1010.9
20260507143124 16 269 0.0 0.0 0.00 0.00 0.00 89 1011.0
20260507142124 16 269 0.0 1.6 0.00 0.00 0.00 89 1010.9
20260507141123 16 269 0.0 0.0 0.00 0.00 0.00 89 1010.9
20260507140124 16 269 0.0 0.0 0.00 0.00 0.00 89 1011.0
20260507135124 16 269 0.0 1.6 0.00 0.00 0.00 89 1011.1
20260507134124 16 269 0.0 3.2 0.00 0.00 0.00 89 1011.2
20260507133123 16 252 0.0 3.2 0.00 0.00 0.00 89 1011.3
20260507132124 16 247 0.0 1.6 0.00 0.00 0.00 89 1011.2
20260507131124 16 259 0.0 4.8 0.00 0.00 0.00 88 1011.0
20260507130125 16 263 0.0 1.6 0.00 0.00 0.00 88 1011.2
20260507125124 17 262 0.0 1.6 0.00 0.00 0.00 87 1011.2
20260507124123 17 266 0.0 0.0 0.00 0.00 0.00 86 1011.3
20260507123125 17 266 0.0 0.0 0.00 0.00 0.00 86 1011.4
20260507122126 17 266 0.0 0.0 0.00 0.00 0.00 85 1011.3
20260507121125 17 266 0.0 0.0 0.00 0.00 0.00 85 1011.4
20260507120125 17 264 0.0 1.6 0.00 0.00 0.00 85 1011.4
20260507115126 17 266 0.0 0.0 0.00 0.00 0.00 84 1011.2
20260507114125 17 266 0.0 1.6 0.00 0.00 0.00 83 1011.2
20260507113125 17 266 0.0 0.0 0.00 0.00 0.00 83 1011.2
20260507112126 18 266 0.0 1.6 0.00 0.00 0.00 82 1010.9
20260507111125 18 266 0.0 1.6 0.00 0.00 0.00 81 1010.8
20260507110126 18 266 0.0 1.6 0.00 0.00 0.00 81 1010.8
20260507105126 18 266 0.0 1.6 0.00 0.00 0.00 79 1010.7
20260507104125 19 293 1.6 1.6 0.00 0.00 0.00 77 1010.6
20260507103125 20 256 0.0 0.0 0.00 0.00 0.00 75 1010.6
20260507102126 20 256 0.0 1.6 0.00 0.00 0.00 73 1010.4
20260507101126 21 105 0.0 0.0 0.00 0.00 0.00 70 1010.4
20260507100126 21 105 0.0 1.6 0.00 0.00 0.00 69 1010.3